[[{"header":{"parameterUnit":"m.s-1","parameterCategory":1,"la1":30.2991,"la2":30.254,"lo1":-89.0895,"lo2":-89.0444,"dy":0.0017,"dx":0.0017,"nx":28,"ny":28,"refTime":"2024-05-05T03:00:00:Z","depth":0,"parameterNumber":2,"parameterNumberName":"U-component_of_WINDS"},"data":[0,0,0,0,0,0,0,0,0,0,0,0,0,0,0,0,0,0,0,0,0,0,0,0,0,0,0,0,0,0,0,0,0,0,0,0,0,0,0,0,0,0,0,0,0,0,0,0,0,0,0,0,0,0,0,0,0,0,-0.9313,-0.9312,0,-0.9299,-0.9299,-0.9299,-0.9268,-0.9267,-0.9266,-0.9266,-0.9254,-0.9254,-0.9254,0,0,0,0,0,0,0,0,0,0,0,0,0,-0.9313,-0.9313,-0.9313,-0.9312,-0.9312,-0.9299,-0.9299,-0.9299,-0.9268,-0.9267,-0.9266,-0.9265,-0.9254,-0.9254,-0.9254,0,0,0,0,0,0,0,0,0,0,0,0,0,-0.9307,-0.9313,-0.9313,-0.9295,-0.9293,-0.93,-0.9299,-0.9299,-0.9268,-0.9267,-0.9266,-0.9265,-0.9253,-0.9254,-0.9254,-0.9277,0,0,-0.9256,-0.9256,0,0,0,0,0,0,0,0,-0.9308,-0.9308,-0.9298,-0.9296,-0.9294,-0.9284,-0.9295,-0.9292,-0.9268,-0.9278,-0.9266,-0.9265,-0.9265,-0.9264,-0.9264,-0.9276,-0.9276,-0.9256,-0.9256,-0.9256,-0.9256,0,0,0,0,0,0,0,-0.9308,-0.9308,-0.9307,-0.9298,-0.9296,-0.9289,-0.9287,-0.9294,-0.9277,-0.9277,-0.9274,-0.9273,-0.9264,-0.9264,-0.9263,-0.9276,-0.9256,-0.9256,-0.9256,-0.9257,-0.9307,-0.9308,0,0,0,0,0,0,-0.9311,-0.9308,-0.9308,-0.9307,-0.9299,-0.9289,-0.9287,-0.9288,-0.9277,-0.9274,-0.9274,-0.9272,-0.9263,-0.9263,-0.9263,-0.9289,-0.9256,-0.9257,-0.9257,-0.9306,-0.9307,-0.9309,0,0,0,0,0,0,-0.9311,-0.9311,-0.9308,-0.9307,-0.9306,-0.929,-0.9292,-0.9289,-0.9289,-0.9275,-0.9272,-0.9277,-0.9263,-0.9262,-0.9274,-0.9288,-0.9257,-0.9257,-0.9305,-0.9307,-0.9308,-0.9341,0,0,0,0,0,0,-0.9311,-0.9311,-0.9319,-0.9307,-0.9306,-0.9319,-0.9293,-0.9289,-0.9289,-0.9286,-0.9277,-0.9274,-0.9262,-0.9273,-0.9274,-0.9288,-0.9258,-0.9303,-0.9306,-0.9307,-0.9339,-0.9344,-0.9348,0,0,0,0,0,-0.9311,-0.9329,-0.932,-0.932,-0.9316,-0.932,-0.9319,-0.9304,-0.9291,-0.9299,-0.929,-0.9275,-0.9287,-0.9275,-0.9276,-0.929,-0.9302,-0.9305,-0.9307,-0.9337,-0.9343,-0.9348,0,0,0,0,0,0,-0.9343,-0.9327,-0.9316,-0.9331,-0.9327,-0.9314,-0.9324,-0.9311,-0.9311,-0.9308,-0.929,-0.9288,-0.9302,-0.9297,-0.9284,-0.9312,-0.9292,-0.9295,-0.9314,-0.932,-0.9324,-0.9325,-0.9258,0,0,0,0,0,-0.9351,-0.9355,-0.9342,-0.9356,-0.9354,-0.934,-0.9341,-0.933,-0.9325,-0.9323,-0.9315,-0.9312,-0.9315,-0.9317,-0.9319,-0.9338,-0.9336,-0.9349,-0.9353,-0.9357,-0.936,-0.937,-0.9376,-0.9317,-0.9317,-0.9317,0,0,-0.9369,-0.9361,-0.9365,-0.9362,-0.9357,-0.9363,-0.9338,-0.9345,-0.9349,-0.9324,-0.9335,-0.9329,-0.9324,-0.934,-0.9346,-0.9336,-0.9376,-0.936,-0.9363,-0.9364,-0.9373,-0.9379,-0.9384,-0.9318,-0.9318,-0.9318,0,0,-0.9404,-0.9398,-0.941,-0.9406,-0.94,-0.939,-0.9393,-0.9383,-0.9378,-0.9388,-0.937,-0.9375,-0.9381,-0.9378,-0.9377,-0.9413,-0.9399,-0.9415,-0.9439,-0.9449,-0.9454,-0.9458,-0.9471,-0.9476,-0.9417,-0.9417,-0.9417,0,-0.9427,-0.9434,-0.9418,-0.9425,-0.9425,-0.9403,-0.9415,-0.9413,-0.9407,-0.9408,-0.9397,-0.9404,-0.9399,-0.9414,-0.9423,-0.9423,-0.9427,-0.9415,-0.9455,-0.9459,-0.9462,-0.9475,-0.948,-0.9419,-0.9419,-0.9419,-0.9419,0,-0.9463,-0.9468,-0.9478,-0.9474,-0.9475,-0.9484,-0.947,-0.9474,-0.9463,-0.9455,-0.9466,-0.946,-0.946,-0.9463,-0.9453,-0.9477,-0.9471,-0.9458,-0.9438,-0.947,-0.9481,-0.9486,-0.9422,-0.9421,-0.9421,-0.942,0,0,-0.9516,-0.9504,-0.9508,-0.9506,-0.9498,-0.9502,-0.9511,-0.9512,-0.9515,-0.9513,-0.9521,-0.9527,-0.9514,-0.9514,-0.9503,-0.9512,-0.9542,-0.9498,-0.9497,-0.9506,-0.957,-0.958,-0.9586,-0.9533,-0.9534,-0.9535,-0.957,0,-0.955,-0.9564,-0.9551,-0.9568,-0.9573,-0.9554,-0.9562,-0.9559,-0.9552,-0.9556,-0.9548,-0.9553,-0.9536,-0.9536,-0.9544,-0.9537,-0.9555,-0.9534,-0.9541,-0.9541,-0.9543,-0.9592,-0.9602,-0.9636,-0.9575,-0.9575,-0.9576,0,-0.959,-0.959,-0.9608,-0.96,-0.9601,-0.9609,-0.9609,-0.9613,-0.9609,-0.9603,-0.9604,-0.9591,-0.9601,-0.9581,-0.9595,-0.9582,-0.9584,-0.9581,-0.9582,-0.9582,-0.956,-0.9593,-0.9646,-0.9651,-0.9583,-0.9582,-0.9582,0,-0.9628,-0.9632,-0.9643,-0.9642,-0.9633,-0.9639,-0.9636,-0.9631,-0.9632,-0.9633,-0.9634,-0.9636,-0.9637,-0.9639,-0.9627,-0.9614,-0.9643,-0.9622,-0.9639,-0.9639,-0.9645,-0.9645,-0.97,-0.9647,-0.9647,-0.9647,-0.9647,0,-0.9666,-0.9678,-0.966,-0.9667,-0.9681,-0.9665,-0.9679,-0.9674,-0.967,-0.9677,-0.966,-0.9667,-0.9651,-0.9656,-0.9647,-0.966,-0.9661,-0.9657,-0.9655,-0.9659,-0.9659,-0.966,-0.9657,-0.9648,-0.9648,-0.9648,-0.9647,0,-0.971,-0.9699,-0.971,-0.9701,-0.9699,-0.9709,-0.9701,-0.9708,-0.97,-0.9709,-0.971,-0.9698,-0.9704,-0.9693,-0.9697,-0.9691,-0.9709,-0.9703,-0.9711,-0.9709,-0.9726,-0.9725,-0.9783,-0.979,-0.9733,-0.9733,-0.9734,0,-0.9736,-0.9744,-0.9736,-0.9739,-0.9736,-0.9741,-0.9743,-0.9729,-0.9731,-0.9728,-0.9736,-0.974,-0.9742,-0.9752,-0.9744,-0.9748,-0.9742,-0.9762,-0.9742,-0.9746,-0.9742,-0.9742,-0.9743,-0.9766,-0.9767,-0.9767,-0.9768,0,-0.9782,-0.9776,-0.9778,-0.978,-0.9782,-0.9782,-0.9781,-0.9785,-0.977,-0.9774,-0.9779,-0.9781,-0.9785,-0.979,-0.9792,-0.9789,-0.9776,-0.9774,-0.9778,-0.9782,-0.9786,-0.9785,-0.9722,-0.9773,-0.9772,-0.9772,-0.9772,-0.9771,-0.9817,-0.9825,-0.982,-0.9824,-0.9822,-0.9822,-0.9828,-0.9821,-0.9825,-0.9827,-0.9819,-0.9826,-0.9824,-0.9824,-0.9823,-0.983,-0.982,-0.9826,-0.9828,-0.9829,-0.9832,-0.9785,-0.983,-0.983,-0.9829,-0.9829,-0.9829,0,-0.9863,-0.9859,-0.9863,-0.9862,-0.9866,-0.9853,-0.9852,-0.9856,-0.9863,-0.9861,-0.9864,-0.987,-0.9875,-0.9868,-0.9872,-0.9878,-0.9873,-0.988,-0.9879,-0.9879,-0.984,-0.9836,-0.9884,-0.9884,-0.9884,-0.9884,-0.9884,-0.9884,-0.9887,-0.9899,-0.9893,-0.9904,-0.99,-0.9907,-0.9908,-0.9908,-0.9906,-0.9914,-0.9918,-0.9913,-0.991,-0.9914,-0.9918,-0.9916,-0.9918,-0.9927,-0.9923,-0.9887,-0.9882,-0.9876,-0.9873,-0.9928,-0.9928,-0.9962,-0.9962,-0.9962]},{"header":{"parameterUnit":"m.s-1","parameterCategory":1,"la1":30.2991,"la2":30.254,"lo1":-89.0895,"lo2":-89.0444,"dy":0.0017,"dx":0.0017,"nx":28,"ny":28,"refTime":"2024-05-05T03:00:00:Z","depth":0,"parameterNumber":3,"parameterNumberName":"V-component_of_WINDS"},"data":[0,0,0,0,0,0,0,0,0,0,0,0,0,0,0,0,0,0,0,0,0,0,0,0,0,0,0,0,0,0,0,0,0,0,0,0,0,0,0,0,0,0,0,0,0,0,0,0,0,0,0,0,0,0,0,0,0,0,4.449,4.449,0,4.4475,4.4475,4.4475,4.4488,4.4488,4.4489,4.4489,4.4469,4.4468,4.4467,0,0,0,0,0,0,0,0,0,0,0,0,0,4.4528,4.4527,4.449,4.449,4.449,4.4475,4.4475,4.4475,4.4488,4.4488,4.4489,4.4489,4.447,4.4468,4.4467,0,0,0,0,0,0,0,0,0,0,0,0,0,4.4512,4.4527,4.449,4.4495,4.4495,4.4475,4.4475,4.4475,4.4487,4.4488,4.4489,4.449,4.447,4.4469,4.4467,4.4441,0,0,4.4462,4.4462,0,0,0,0,0,0,0,0,4.4513,4.4511,4.4494,4.4494,4.4495,4.4484,4.4481,4.4463,4.4487,4.449,4.4489,4.449,4.4473,4.4472,4.4467,4.444,4.4439,4.4462,4.4461,4.446,4.446,0,0,0,0,0,0,0,4.4514,4.4511,4.4484,4.4494,4.4494,4.4497,4.4495,4.4478,4.4477,4.449,4.4491,4.4489,4.4474,4.4468,4.4466,4.4439,4.4462,4.4461,4.446,4.4459,4.4391,4.439,0,0,0,0,0,0,4.4515,4.4512,4.4485,4.4484,4.4506,4.4495,4.4494,4.4487,4.4477,4.4477,4.4488,4.449,4.447,4.4468,4.4466,4.4435,4.446,4.4459,4.4458,4.4392,4.4391,4.439,0,0,0,0,0,0,4.4516,4.4513,4.4485,4.4498,4.4495,4.4494,4.4486,4.4486,4.4481,4.4476,4.4476,4.4483,4.4471,4.4468,4.4447,4.4435,4.4458,4.4457,4.4393,4.4391,4.439,4.4373,0,0,0,0,0,0,4.4517,4.4513,4.4503,4.4498,4.4494,4.4468,4.4485,4.4485,4.4478,4.448,4.4471,4.4471,4.4471,4.445,4.4446,4.4433,4.4456,4.4394,4.4392,4.439,4.4375,4.4371,4.4369,0,0,0,0,0,4.4518,4.4498,4.4503,4.4499,4.4483,4.4467,4.4465,4.4468,4.4477,4.4467,4.4465,4.4471,4.4437,4.4448,4.4443,4.443,4.4395,4.4392,4.4391,4.4376,4.4372,4.4369,0,0,0,0,0,0,4.45,4.4497,4.4503,4.448,4.4474,4.447,4.4457,4.4463,4.4453,4.4454,4.4457,4.4455,4.4434,4.4429,4.4442,4.4404,4.4417,4.4414,4.4408,4.4404,4.4401,4.4402,4.4454,0,0,0,0,0,4.4494,4.4483,4.448,4.4461,4.4458,4.4458,4.4451,4.4454,4.4447,4.4444,4.444,4.4432,4.442,4.4412,4.44,4.4375,4.4373,4.4363,4.436,4.4358,4.4355,4.4342,4.4338,4.4383,4.4383,4.4383,0,0,4.448,4.4477,4.447,4.4457,4.4453,4.4441,4.4456,4.4442,4.4432,4.4442,4.4423,4.442,4.4411,4.4388,4.4378,4.4384,4.4342,4.4355,4.4353,4.4352,4.4339,4.4335,4.4331,4.4382,4.4382,4.4382,0,0,4.4449,4.4445,4.4429,4.4425,4.4419,4.442,4.4416,4.4411,4.441,4.4391,4.4398,4.4387,4.4365,4.4359,4.4353,4.4322,4.4327,4.4318,4.4301,4.4289,4.4285,4.4282,4.4271,4.4267,4.4315,4.4315,4.4315,0,4.4432,4.4415,4.442,4.4406,4.4401,4.4411,4.4394,4.4389,4.4379,4.4374,4.4382,4.4357,4.4351,4.4328,4.432,4.4315,4.4311,4.4318,4.4285,4.4282,4.4279,4.4269,4.4265,4.4314,4.4314,4.4314,4.4315,0,4.4394,4.4383,4.437,4.4362,4.4355,4.434,4.4342,4.4334,4.4338,4.4338,4.4319,4.4314,4.4302,4.4296,4.4299,4.4274,4.4278,4.4285,4.4298,4.4274,4.4264,4.426,4.4313,4.4313,4.4313,4.4314,0,0,4.435,4.4347,4.4342,4.4339,4.4334,4.4324,4.4309,4.4299,4.4293,4.4286,4.4273,4.4256,4.4263,4.4257,4.4259,4.4248,4.4224,4.4257,4.4257,4.4251,4.4196,4.4191,4.4186,4.4228,4.4227,4.4227,4.4197,0,4.4318,4.4295,4.43,4.4276,4.4265,4.4275,4.4263,4.4258,4.4257,4.4247,4.4247,4.4235,4.4245,4.4241,4.4231,4.4229,4.4213,4.4231,4.4216,4.4215,4.4218,4.4181,4.4174,4.4146,4.4193,4.4193,4.4192,0,4.4278,4.4272,4.4248,4.4246,4.4241,4.423,4.4222,4.4212,4.4207,4.4208,4.4202,4.4206,4.4191,4.4205,4.4185,4.4197,4.4191,4.4189,4.4188,4.4187,4.4202,4.4178,4.4138,4.4133,4.4186,4.4187,4.4187,0,4.4249,4.4234,4.4218,4.4215,4.4212,4.4204,4.4202,4.4198,4.4192,4.4184,4.418,4.4171,4.4165,4.4157,4.4159,4.4169,4.4138,4.4152,4.4138,4.4138,4.413,4.4131,4.4089,4.4127,4.4127,4.4127,4.4127,0,4.4213,4.4198,4.4205,4.4194,4.4178,4.4184,4.4167,4.4166,4.4162,4.4152,4.416,4.415,4.4153,4.4143,4.4144,4.4127,4.4125,4.4124,4.4125,4.4124,4.4124,4.4119,4.4121,4.4126,4.4126,4.4126,4.4127,0,4.4177,4.4181,4.4164,4.4163,4.4163,4.415,4.4149,4.414,4.4141,4.4128,4.4125,4.4126,4.4115,4.4117,4.4103,4.4104,4.4083,4.4086,4.4086,4.4086,4.4072,4.4073,4.4025,4.4019,4.4062,4.4061,4.4061,0,4.4154,4.4142,4.4141,4.4136,4.4134,4.4124,4.4119,4.4125,4.4119,4.4113,4.4104,4.4094,4.4086,4.4067,4.4066,4.4057,4.4059,4.4043,4.4058,4.4057,4.4059,4.406,4.4059,4.404,4.404,4.4039,4.4039,0,4.4112,4.4115,4.4108,4.4102,4.4095,4.409,4.4086,4.408,4.4086,4.4078,4.4068,4.4062,4.405,4.404,4.4031,4.4028,4.4034,4.4035,4.4031,4.4029,4.4029,4.4029,4.4078,4.4035,4.4036,4.4036,4.4036,4.4036,4.4082,4.4073,4.4071,4.4063,4.4061,4.4057,4.4048,4.4049,4.4041,4.4032,4.4036,4.4024,4.402,4.4009,4.4006,4.3996,4.4002,4.3997,4.3995,4.3994,4.3992,4.4032,4.3995,4.3995,4.3995,4.3995,4.3995,0,4.4041,4.4041,4.4034,4.4028,4.4022,4.403,4.4026,4.402,4.401,4.4006,4.3999,4.3987,4.3978,4.3977,4.3968,4.3961,4.3963,4.3958,4.3958,4.3958,4.3987,4.3992,4.3956,4.3956,4.3956,4.3956,4.3956,4.3956,4.4019,4.4005,4.4008,4.3992,4.3992,4.3982,4.3979,4.3975,4.3972,4.396,4.3953,4.3953,4.395,4.3942,4.3933,4.3933,4.393,4.3923,4.3924,4.3952,4.3956,4.3959,4.3963,4.3923,4.3923,4.3896,4.3896,4.3895]}]]